This is the latest recevied weather packets stored in our database for station/object KF4PPJ. If no packets are shown the sender has not sent any weather packets the latest 10 day(s).
| Time | Temp. | Humidity | Pressure | Rain* | Wind** | Luminosity | Snow |
|---|---|---|---|---|---|---|---|
| 1777927673 | 22.22° C | 54% | 1013.7 hPa | 0 mm | - | 663 W/m² | - |
| 1777927371 | 22.22° C | 53% | 1013.7 hPa | 0 mm | - | 606 W/m² | - |
| 1777927070 | 22.22° C | 56% | 1013.8 hPa | 0 mm | - | 661 W/m² | - |
| 1777926767 | 21.67° C | 55% | 1013.6 hPa | 0 mm | - | 628 W/m² | - |
| 1777926467 | 21.67° C | 55% | 1013.8 hPa | 0 mm | - | 551 W/m² | - |
| 1777926164 | 21.67° C | 55% | 1013.7 hPa | 0 mm | - | 518 W/m² | - |
| 1777925861 | 21.67° C | 55% | 1013.5 hPa | 0 mm | - | 528 W/m² | - |
| 1777925558 | 21.67° C | 55% | 1013.7 hPa | 0 mm | - | 610 W/m² | - |
| 1777925256 | 21.67° C | 55% | 1013.7 hPa | 0 mm | - | 667 W/m² | - |
| 1777924951 | 21.11° C | 56% | 1013.8 hPa | 0 mm | - | 645 W/m² | - |
| 1777924648 | 21.11° C | 56% | 1013.8 hPa | 0 mm | - | 612 W/m² | - |
| 1777924344 | 21.11° C | 56% | 1013.9 hPa | 0 mm | - | 609 W/m² | - |
| 1777924042 | 20.56° C | 57% | 1014 hPa | 0 mm | - | 616 W/m² | - |
| 1777923738 | 20.56° C | 57% | 1013.8 hPa | 0 mm | - | 606 W/m² | - |
| 1777923434 | 20.56° C | 57% | 1013.9 hPa | 0 mm | - | 651 W/m² | - |
| 1777923132 | 20.56° C | 56% | 1013.9 hPa | 0 mm | - | 674 W/m² | - |
| 1777922830 | 20.56° C | 56% | 1014.1 hPa | 0 mm | - | 655 W/m² | - |
| 1777922528 | 20.56° C | 56% | 1014 hPa | 0 mm | - | 649 W/m² | - |
| 1777922226 | 20.56° C | 56% | 1014 hPa | 0 mm | - | 718 W/m² | - |
| 1777921922 | 20° C | 58% | 1014.1 hPa | 0 mm | - | 680 W/m² | - |
| 1777921618 | 20° C | 58% | 1014.2 hPa | 0 mm | - | 632 W/m² | - |
| 1777921314 | 20.56° C | 57% | 1014 hPa | 0 mm | - | 618 W/m² | - |
| 1777921011 | 20° C | 58% | 1014.2 hPa | 0 mm | - | 609 W/m² | - |
| 1777920708 | 20° C | 59% | 1014.1 hPa | 0 mm | - | 533 W/m² | - |
| 1777920404 | 19.44° C | 59% | 1014.2 hPa | 0 mm | - | 456 W/m² | - |
* Rain latest hour (hover to see other rain measurements)
** Current wind speed in m/s (hover to see current wind gust speed)